Location: Chittendens Corners
(41.2320°N, 81.4940°W)
Time: 17:55:00
(UTC+00:00)

Helios 1A Rocket - Pass Details

Date: 29 October 2020
Orbit: 562 x 587 km, 98.3° (Epoch: 23 November)

Event Time Altitude Azimuth Distance (km) Brightness Sun altitude
Rises 23:35:59 0° 156° (SSE) 2,793 6.2 -14.0°
Reaches altitude 10° 23:38:09 10° 153° (SSE) 1,895 5.3 -14.4°
Maximum altitude 23:42:12 59° 74° (ENE) 673 2.9 -15.1°
Drops below altitude 10° 23:46:14 10° 355° (N) 1,896 5.6 -15.9°
Sets 23:48:24 0° 351° (N) 2,795 6.5 -16.3°
